Flag for Netherlands Weather past 2 weeks in Zoetermeer, Netherlands

Now
63 °F

Clear.


Feels Like: 63 °F
Forecast: 64 / 79 °F
Wind: 2 mph from North

Location: Rotterdam Zestienhoven Airport

Current Time: Aug 2, 2014 at 12:38:51 AM

Latest Report: Aug 1, 2014 at 11:55 PM


Visibility: N/A

Pressure: 29.77 "Hg

Humidity: 88%

Dew point: 59 °F

Location of ZoetermeerLocation

Historic Weather in Zoetermeer — Graph

°F

Zoetermeer temperature yesterday

Maximum temperature yesterday: 79 °F (at 3:25 PM)
Minimum temperature yesterday: 59 °F (at 2:55 AM)
Average temperature yesterday: 69 °F

Past Weeks' High & Low Weather Summary

 TemperatureHumidityPressure
High95 °F (Jul 19, 3:25 PM)100% (Jul 20, 6:25 AM)30.12 "Hg (Jul 20, 6:25 AM)
Low57 °F (Jul 30, 3:25 AM)26% (Jul 19, 3:25 PM)29.74 "Hg (Jul 19, 11:25 PM)
Average70 °F76%29.94 "Hg
* Reported Jul 17 11:25 PM — Aug 1 11:25 PM, Zoetermeer, Weather by CustomWeather, © 2014

Note: Actual official high and low records may vary slightly from our data, if they occured in-between our weather recording intervals... More about our weather records

Advertising

Zoetermeer weather history for previous 24 hours

 ConditionsComfort  
Time TempWeatherWind HumidityBarometerVisibility
11:25 PM
Aug 1
64 °FMild.2 mph83%29.77 "HgN/A
10:55 PM66 °FMild.5 mph78%29.77 "HgN/A
10:25 PM68 °FMild.2 mph73%29.77 "HgN/A
9:55 PM68 °FClear.2 mph73%29.77 "HgN/A
9:25 PM70 °FClear.2 mph73%29.77 "HgN/A
8:55 PM72 °FClear.3 mph69%29.77 "HgN/A
8:25 PM72 °FClear.5 mph69%29.77 "HgN/A
7:55 PM73 °FClear.6 mph69%29.77 "HgN/A
7:25 PM75 °FPartly sunny.3 mph65%29.77 "HgN/A
6:55 PM75 °FClear.3 mph61%29.77 "HgN/A
6:25 PM75 °FClear.3 mph65%29.77 "HgN/A
5:55 PM75 °FScattered clouds.6 mph65%29.80 "HgN/A
5:25 PM77 °FPartly sunny.6 mph57%29.80 "HgN/A
4:55 PM79 °FPassing clouds.7 mph48%29.80 "HgN/A
4:25 PM77 °FScattered clouds.6 mph51%29.80 "HgN/A
3:55 PM77 °FPassing clouds.8 mph51%29.80 "HgN/A
3:25 PM79 °FScattered clouds.9 mph48%29.80 "HgN/A
2:55 PM77 °FScattered clouds.9 mph51%29.80 "HgN/A
2:25 PM77 °FPassing clouds.10 mph51%29.80 "HgN/A
1:55 PM77 °FPartly sunny.9 mph51%29.83 "HgN/A
1:25 PM77 °FScattered clouds.9 mph54%29.83 "HgN/A
12:55 PM75 °FPassing clouds.12 mph57%29.83 "HgN/A
12:25 PM75 °FClear.12 mph54%29.83 "HgN/A
11:55 AM75 °FClear.9 mph54%29.83 "HgN/A
11:25 AM73 °FMild.8 mph57%29.83 "HgN/A
10:55 AM72 °FMild.7 mph61%29.83 "HgN/A
10:25 AM72 °FClear.6 mph65%29.86 "HgN/A
9:55 AM70 °FMild.5 mph64%29.86 "HgN/A
9:25 AM68 °FMild.5 mph73%29.86 "HgN/A
8:55 AM68 °FClear.5 mph73%29.86 "HgN/A
8:25 AM66 °FClear.3 mph83%29.86 "Hg6 mi
7:55 AM64 °FClear.5 mph88%29.86 "Hg6 mi
7:25 AM63 °FMild.3 mph94%29.86 "Hg6 mi
6:55 AM59 °FCool.3 mph100%29.86 "Hg4 mi
6:25 AM59 °FCool.2 mph100%29.86 "Hg6 mi
5:55 AM59 °FCool.3 mph100%29.86 "HgN/A
5:25 AM59 °FClear.1 mph100%29.86 "HgN/A
4:55 AM59 °FClear.1 mph100%29.89 "HgN/A
4:25 AM59 °FCool.1 mph100%29.89 "HgN/A
3:55 AM59 °FClear.2 mph100%29.89 "HgN/A
3:25 AM59 °FCool.1 mph100%29.89 "HgN/A
2:55 AM59 °FClear.3 mph94%29.89 "Hg6 mi
2:25 AM61 °FClear.2 mph94%29.89 "HgN/A
1:55 AM61 °FCool.1 mph94%29.89 "HgN/A
1:25 AM61 °FCool.2 mph94%29.89 "HgN/A
12:55 AM63 °FMild.3 mph88%29.89 "HgN/A
12:25 AM64 °FClear.3 mph78%29.89 "HgN/A
Weather by CustomWeather, © 2014

See weather overviewHow to use our weather pages